This is the latest recevied weather packets stored in our database for station/object N4BBA. If no packets are shown the sender has not sent any weather packets the latest 10 day(s).
| Time | Temp. | Humidity | Pressure | Rain* | Wind** | Luminosity | Snow |
|---|---|---|---|---|---|---|---|
| 1777832824 | 18.33° C | 35% | 1017.2 hPa | 0 mm | - | 807 W/m² | - |
| 1777832522 | 17.78° C | 36% | 1017 hPa | 0 mm | - | 813 W/m² | - |
| 1777832218 | 17.78° C | 35% | 1017.4 hPa | 0 mm | - | 819 W/m² | - |
| 1777831915 | 18.33° C | 36% | 1017.4 hPa | 0 mm | - | 821 W/m² | - |
| 1777831612 | 17.78° C | 36% | 1017.4 hPa | 0 mm | - | 826 W/m² | - |
| 1777831310 | 17.78° C | 36% | 1017.6 hPa | 0 mm | - | 829 W/m² | - |
| 1777831007 | 17.78° C | 37% | 1017.7 hPa | 0 mm | - | 832 W/m² | - |
| 1777830704 | 17.22° C | 38% | 1017.7 hPa | 0 mm | - | 835 W/m² | - |
| 1777830400 | 17.22° C | 36% | 1017.8 hPa | 0 mm | - | 839 W/m² | - |
| 1777830098 | 17.22° C | 36% | 1017.9 hPa | 0 mm | - | 840 W/m² | - |
| 1777829792 | 17.78° C | 37% | 1017.8 hPa | 0 mm | - | 842 W/m² | - |
| 1777829489 | 17.22° C | 37% | 1017.8 hPa | 0 mm | - | 843 W/m² | - |
| 1777829186 | 17.78° C | 38% | 1017.7 hPa | 0 mm | - | 843 W/m² | - |
| 1777828884 | 17.78° C | 39% | 1017.6 hPa | 0 mm | - | 845 W/m² | - |
| 1777828580 | 17.22° C | 38% | 1017.7 hPa | 0 mm | - | 846 W/m² | - |
| 1777828277 | 16.67° C | 39% | 1017.9 hPa | 0 mm | - | 845 W/m² | - |
| 1777827975 | 17.22° C | 39% | 1018 hPa | 0 mm | - | 845 W/m² | - |
| 1777827671 | 16.67° C | 41% | 1017.9 hPa | 0 mm | - | 843 W/m² | - |
| 1777827368 | 16.11° C | 40% | 1017.9 hPa | 0 mm | - | 841 W/m² | - |
| 1777827064 | 16.67° C | 42% | 1018.2 hPa | 0 mm | - | 838 W/m² | - |
| 1777826761 | 16.67° C | 41% | 1018.3 hPa | 0 mm | - | 837 W/m² | - |
| 1777826458 | 16.11° C | 42% | 1018.5 hPa | 0 mm | - | 835 W/m² | - |
| 1777826155 | 16.11° C | 43% | 1018 hPa | 0 mm | - | 829 W/m² | - |
| 1777825852 | 16.67° C | 42% | 1018.4 hPa | 0 mm | - | 826 W/m² | - |
| 1777825549 | 16.11° C | 43% | 1018.5 hPa | 0 mm | - | 821 W/m² | - |
* Rain latest hour (hover to see other rain measurements)
** Current wind speed in m/s (hover to see current wind gust speed)